Theta_e
340 343 344 344 348 350 349 352 352 348 348 352 351 351 350 351 351 354 352 349 353 349 352 350 353 355 350 351 350 348 342 340
335 339 342 343 346 348 348 352 352 352 353 348 349 348 349 349 351 355 349 354 357 348 349 349 350 350 347 347 346 347 346 344
327 336 351 344 346 342 338 349 351 351 351 351 348 349 349 351 352 356 354 353 355 354 354 349 350 348 349 348 347 350 349 347
326 328 343 345 339 339 337 341 349 356 356 353 351 353 351 353 353 355 358 357 358 355 359 359 357 357 353 349 349 352 351 350
323 329 337 347 340 342 338 339 342 349 355 358 355 357 351 354 354 357 356 360 362 361 358 355 356 357 358 358 358 357 354 352
320 325 335 346 343 337 339 339 337 343 353 356 355 352 352 346 345 349 359 360 362 362 359 359 359 358 356 354 354 352 354 348
319 324 333 338 346 345 341 332 331 336 344 342 351 354 349 342 342 338 340 356 354 350 350 353 359 357 357 353 350 353 350 348
318 326 332 338 345 348 342 342 346 339 333 337 349 354 354 339 331 341 348 348 340 336 345 345 349 348 346 348 352 351 348 347
317 327 332 340 345 349 355 352 354 347 350 348 350 349 352 347 333 334 343 350 349 343 332 338 351 353 351 346 346 340 337 338
316 326 334 336 342 350 354 356 357 359 354 356 354 350 354 353 355 356 354 350 355 356 358 354 354 344 344 341 342 338 335 335
315 326 331 335 338 346 349 356 358 360 360 353 355 358 355 355 354 354 356 356 355 347 347 343 340 338 335 340 342 338 331 332
316 325 329 331 339 339 343 347 356 356 359 357 353 346 343 345 341 347 344 340 339 339 337 337 338 341 341 338 336 339 335 326
316 318 329 332 338 340 344 352 355 357 358 358 348 349 344 338 340 341 344 342 339 338 337 339 339 340 340 339 337 337 337 333
319 326 331 330 334 337 344 347 344 342 342 349 342 338 340 336 339 336 337 340 341 340 338 339 339 339 337 337 338 337 336 334
322 324 326 331 333 341 340 338 337 337 336 334 334 332 331 333 331 332 331 330 332 337 334 334 333 334 334 332 330 330 329 329
322 324 326 331 335 334 333 332 331 330 329 330 331 333 328 330 327 326 325 325 327 332 331 331 331 330 330 329 326 325 324 323
324 326 329 331 331 330 330 328 329 329 328 330 330 327 328 327 328 328 328 331 324 326 326 326 326 326 326 325 322 322 323 323
324 324 327 327 328 328 328 328 326 327 328 328 326 326 326 326 328 326 326 327 327 326 325 324 323 323 324 323 321 321 321 320
322 323 324 323 323 322 325 323 324 324 324 325 325 324 324 325 325 325 325 326 325 322 321 321 321 321 322 321 320 319 317 317
320 320 320 320 320 319 320 322 321 321 321 322 323 324 324 324 324 324 324 323 323 321 320 319 319 318 319 318 316 317 315 314
Wind_Speed
25 32 20 13 18 16 20 16 14 15 14 11 7 7 7 7 11 10 9 8 9 8 6 7 7 10 6 9 8 7 9 8
13 14 12 11 7 16 21 23 17 14 13 12 11 9 8 8 9 12 8 5 5 7 6 10 9 7 9 7 7 10 11 9
12 10 9 13 13 9 14 12 14 10 14 11 11 11 11 11 10 12 9 7 5 5 4 6 9 7 10 8 7 6 9 7
12 12 3 9 10 3 2 17 21 6 4 5 6 5 9 8 10 12 12 8 5 7 5 4 3 3 4 6 4 4 5 5
11 11 4 12 8 10 12 16 23 20 7 5 1 3 5 5 5 13 11 6 3 3 5 5 4 4 4 0 2 2 4 4
13 15 11 12 12 13 11 8 16 11 10 5 3 5 5 5 9 9 11 6 4 5 3 3 3 4 4 4 3 4 4 3
16 16 11 9 15 14 16 16 16 6 11 12 8 3 4 5 4 7 16 2 2 8 5 5 3 2 1 2 1 3 4 4
16 15 13 14 7 22 18 15 15 14 10 10 10 4 3 5 4 1 6 9 11 8 5 12 10 7 2 4 3 2 3 5
17 11 14 17 12 8 9 15 18 14 9 8 7 7 6 9 7 12 3 11 13 13 7 14 13 5 1 4 3 3 3 5
17 15 13 14 12 10 8 10 6 7 5 4 3 6 3 7 8 8 9 11 9 7 4 4 4 2 5 4 2 1 1 3
15 17 15 9 12 14 10 11 8 4 5 7 4 5 4 3 4 4 2 2 5 6 5 2 5 3 2 2 1 3 2 2
15 15 17 14 15 14 10 8 12 9 6 6 8 3 5 3 4 4 4 7 3 5 6 3 3 2 2 1 2 2 1 4
18 19 18 15 11 10 6 8 5 7 6 4 7 5 5 3 4 7 6 2 4 2 4 4 3 2 4 5 5 4 3 3
12 13 16 12 7 6 5 10 9 9 11 8 9 10 8 6 5 3 2 1 3 3 2 3 2 3 3 3 4 5 5 6
9 20 13 11 7 10 10 10 10 9 12 9 8 10 9 7 4 5 4 3 3 5 6 6 5 5 5 5 5 6 7 8
11 10 13 15 13 9 9 7 9 10 10 8 7 7 5 4 7 5 4 4 5 7 6 5 5 5 5 5 5 6 8 8
15 11 11 16 13 11 10 10 8 9 9 6 5 6 6 5 5 4 3 3 4 5 5 5 5 6 6 6 7 8 8 8
16 12 13 13 10 10 11 8 7 6 5 4 5 4 3 3 2 3 3 4 5 5 5 6 6 6 7 7 8 8 8 7
17 16 14 13 11 10 7 7 7 5 5 5 4 4 4 4 3 4 4 5 5 6 7 8 8 8 8 8 8 10 11 11
16 16 13 13 13 11 7 5 4 5 4 4 3 2 2 3 4 5 5 6 6 7 7 9 9 10 8 9 11 11 12 12
Wind_Direction
174 199 204 190 174 169 162 157 173 186 153 158 167 166 173 187 182 172 209 204 186 196 155 169 176 194 202 205 209 221 220 220
230 249 231 28 327 167 163 160 172 194 140 161 169 167 176 181 186 175 199 221 187 175 164 183 187 185 201 216 203 210 219 222
286 292 58 73 39 75 0 317 172 186 154 165 176 174 175 185 182 180 197 211 184 192 204 201 181 188 191 208 200 203 197 201
251 279 173 102 101 87 95 312 289 68 346 143 183 173 175 187 178 182 201 204 179 189 188 222 214 235 205 188 199 207 214 226
248 274 34 145 154 163 132 185 351 334 314 329 198 202 154 175 177 170 185 220 230 195 182 195 214 213 234 16 46 315 291 319
260 266 109 161 163 152 154 136 152 213 256 295 297 20 41 30 28 8 178 180 219 229 235 231 97 102 80 66 25 340 303 149
237 256 118 98 165 151 145 163 174 215 46 348 302 331 46 47 357 60 330 319 66 2 302 317 66 62 165 124 253 240 299 305
234 235 128 116 106 154 167 179 192 138 148 128 271 298 120 101 65 261 200 260 101 89 357 345 333 342 229 270 194 13 308 293
233 197 146 131 144 135 138 138 161 166 175 177 187 193 206 153 167 172 200 276 150 170 185 173 216 236 141 127 83 54 337 348
230 183 144 138 142 130 132 126 145 142 165 148 164 237 206 192 174 159 162 166 171 201 203 217 115 87 59 48 110 90 318 287
227 168 158 165 124 128 129 129 142 156 119 101 106 62 12 8 99 153 114 118 156 110 100 66 69 46 4 23 337 182 239 257
214 184 166 159 145 160 136 140 147 151 159 136 107 152 211 129 156 137 106 84 44 70 65 28 48 25 19 354 306 293 284 273
193 211 152 159 148 182 172 115 92 121 125 67 133 187 129 161 82 85 100 117 98 105 83 32 36 357 358 0 337 328 299 290
188 144 145 154 138 147 71 109 86 84 67 78 80 63 59 72 53 104 136 205 154 180 163 161 72 15 339 311 311 308 284 276
105 120 125 118 141 101 94 98 99 78 80 70 63 80 58 82 32 41 36 18 10 58 43 29 5 345 336 331 318 298 292 286
108 107 128 127 106 108 106 97 103 92 83 74 59 40 80 73 62 44 9 356 341 11 6 352 333 324 315 316 297 290 290 286
110 114 116 119 130 133 134 121 107 97 92 95 65 63 50 41 42 31 314 337 339 356 344 301 300 303 296 294 291 287 279 283
120 126 107 105 110 104 102 109 97 106 111 97 80 66 81 64 12 315 321 305 289 295 294 292 300 290 281 278 275 273 280 289
122 110 106 109 105 103 105 129 149 124 95 86 78 33 6 350 334 304 287 290 307 305 299 294 290 290 278 273 276 280 274 273
125 121 135 138 140 138 99 70 101 108 90 71 41 13 318 308 315 302 301 291 284 282 288 285 290 290 287 281 280 273 271 273